^^
Station Historical Data
Daily Summary for March 8, 2021 Units:  English    Metric   Both
Daily Weekly Monthly Yearly
  High: Low: Average:
Temperature: 48.3 °F 27.5 °F 37.1 °F
Dew Point: 37.4 °F 22.4 °F 30 °F
Humidity: 88% 65% 76%
Wind Speed: 14mph 0mph 4.8mph
Wind Gust: 15mph - -
Wind- - SW
Pressure: 30.38 in 30.12 in -
Precipitation: 0.00 in    
 
 
Tabular Data for March 8, 2021
Time Temperature Dew Point Pressure Wind Wind Speed Wind Gust Humidity Rainfall Rate (Hourly) solar
00:00 27.5 °F 22.7 °F 30.38 in South 2 mph 2 mph 82% 0.00 in 0 W/m2
00:05 27.6 °F 22.8 °F 30.38 in West 2 mph 6 mph 82% 0.00 in 0 W/m2
00:10 27.6 °F 22.8 °F 30.38 in North 3 mph 3 mph 82% 0.00 in 0 W/m2
00:15 27.6 °F 22.8 °F 30.38 in NNW 3 mph 3 mph 82% 0.00 in 0 W/m2
00:20 27.6 °F 22.8 °F 30.37 in ENE 3 mph 3 mph 82% 0.00 in 0 W/m2
00:25 27.6 °F 22.8 °F 30.37 in NNE 3 mph 3 mph 82% 0.00 in 0 W/m2
00:30 27.7 °F 22.9 °F 30.37 in WNW 3 mph 3 mph 82% 0.00 in 0 W/m2
00:35 27.7 °F 22.9 °F 30.37 in NNW 3 mph 3 mph 82% 0.00 in 0 W/m2
00:40 27.7 °F 22.9 °F 30.37 in NNW 3 mph 3 mph 82% 0.00 in 0 W/m2
00:45 27.8 °F 23 °F 30.37 in NNW 3 mph 3 mph 82% 0.00 in 0 W/m2
00:50 27.8 °F 23 °F 30.36 in East 3 mph 3 mph 82% 0.00 in 0 W/m2
00:55 28 °F 23.2 °F 30.36 in NW 2 mph 3 mph 82% 0.00 in 0 W/m2
01:00 28.1 °F 23.3 °F 30.36 in NNW 2 mph 2 mph 82% 0.00 in 0 W/m2
01:05 28.1 °F 23.3 °F 30.36 in WSW 2 mph 4 mph 82% 0.00 in 0 W/m2
01:10 28.3 °F 23.2 °F 30.35 in ESE 2 mph 2 mph 81% 0.00 in 0 W/m2
01:15 28.4 °F 23.3 °F 30.35 in West 2 mph 2 mph 81% 0.00 in 0 W/m2
01:20 28.5 °F 23.4 °F 30.35 in WNW 2 mph 3 mph 81% 0.00 in 0 W/m2
01:25 28.5 °F 23.4 °F 30.35 in West 2 mph 3 mph 81% 0.00 in 0 W/m2
01:30 28.5 °F 23.1 °F 30.34 in NNW 2 mph 3 mph 80% 0.00 in 0 W/m2
01:35 28.5 °F 23.1 °F 30.34 in NW 3 mph 3 mph 80% 0.00 in 0 W/m2
01:40 28.5 °F 22.8 °F 30.34 in East 3 mph 3 mph 79% 0.00 in 0 W/m2
01:45 28.5 °F 23.1 °F 30.34 in NNE 2 mph 3 mph 80% 0.00 in 0 W/m2
01:50 28.5 °F 22.8 °F 30.33 in NNW 2 mph 3 mph 79% 0.00 in 0 W/m2
01:55 28.5 °F 22.8 °F 30.33 in South 2 mph 3 mph 79% 0.00 in 0 W/m2
02:00 28.6 °F 22.9 °F 30.33 in NE 2 mph 3 mph 79% 0.00 in 0 W/m2
02:05 28.7 °F 22.7 °F 30.33 in East 2 mph 3 mph 78% 0.00 in 0 W/m2
02:10 28.6 °F 22.6 °F 30.33 in NNW 2 mph 2 mph 78% 0.00 in 0 W/m2
02:15 28.3 °F 22.6 °F 30.33 in NW 2 mph 3 mph 79% 0.00 in 0 W/m2
02:20 28.3 °F 22.6 °F 30.33 in North 2 mph 2 mph 79% 0.00 in 0 W/m2
02:25 28.3 °F 22.6 °F 30.33 in NNE 2 mph 2 mph 79% 0.00 in 0 W/m2
02:30 28.3 °F 22.6 °F 30.32 in ESE 2 mph 3 mph 79% 0.00 in 0 W/m2
02:35 28.4 °F 22.7 °F 30.32 in NNW 2 mph 3 mph 79% 0.00 in 0 W/m2
02:40 28.4 °F 22.7 °F 30.32 in NW 2 mph 4 mph 79% 0.00 in 0 W/m2
02:45 28.5 °F 22.8 °F 30.31 in NNE 2 mph 4 mph 79% 0.00 in 0 W/m2
02:50 28.4 °F 22.7 °F 30.31 in NNW 3 mph 3 mph 79% 0.00 in 0 W/m2
02:55 28.4 °F 22.7 °F 30.31 in East 3 mph 3 mph 79% 0.00 in 0 W/m2
03:00 28.4 °F 22.7 °F 30.31 in NNE 3 mph 3 mph 79% 0.00 in 0 W/m2
03:05 28.5 °F 22.5 °F 30.31 in NNW 2 mph 3 mph 78% 0.00 in 0 W/m2
03:10 28.5 °F 22.5 °F 30.30 in NE 2 mph 2 mph 78% 0.00 in 0 W/m2
03:15 28.5 °F 22.5 °F 30.30 in SSW 2 mph 2 mph 78% 0.00 in 0 W/m2
03:20 28.8 °F 22.5 °F 30.30 in West 2 mph 3 mph 77% 0.00 in 0 W/m2
03:25 28.6 °F 22.6 °F 30.30 in ENE 2 mph 3 mph 78% 0.00 in 0 W/m2
03:30 28.6 °F 22.6 °F 30.30 in NNW 2 mph 2 mph 78% 0.00 in 0 W/m2
03:35 28.5 °F 22.5 °F 30.30 in NNW 2 mph 3 mph 78% 0.00 in 0 W/m2
03:40 28.4 °F 22.4 °F 30.29 in NW 2 mph 3 mph 78% 0.00 in 0 W/m2
03:45 28.3 °F 22.6 °F 30.29 in West 2 mph 3 mph 79% 0.00 in 0 W/m2
03:50 28.4 °F 22.7 °F 30.29 in North 2 mph 4 mph 79% 0.00 in 0 W/m2
03:55 28.6 °F 22.6 °F 30.29 in East 2 mph 4 mph 78% 0.00 in 0 W/m2
04:00 28.7 °F 22.7 °F 30.29 in WNW 2 mph 3 mph 78% 0.00 in 0 W/m2
04:05 28.7 °F 22.7 °F 30.28 in NW 3 mph 3 mph 78% 0.00 in 0 W/m2
04:10 28.7 °F 22.7 °F 30.28 in NNE 3 mph 4 mph 78% 0.00 in 0 W/m2
04:15 28.8 °F 22.8 °F 30.28 in NNW 3 mph 4 mph 78% 0.00 in 0 W/m2
04:20 28.8 °F 22.5 °F 30.28 in North 3 mph 3 mph 77% 0.00 in 0 W/m2
04:25 28.8 °F 22.5 °F 30.28 in NNW 3 mph 3 mph 77% 0.00 in 0 W/m2
04:30 28.8 °F 22.8 °F 30.28 in NW 3 mph 3 mph 78% 0.00 in 0 W/m2
04:35 28.9 °F 22.6 °F 30.28 in NW 3 mph 3 mph 77% 0.00 in 0 W/m2
04:40 28.8 °F 22.5 °F 30.28 in ENE 3 mph 3 mph 77% 0.00 in 0 W/m2
04:45 28.7 °F 22.7 °F 30.28 in NW 2 mph 3 mph 78% 0.00 in 0 W/m2
04:50 28.7 °F 22.7 °F 30.28 in NNW 2 mph 2 mph 78% 0.00 in 0 W/m2
04:55 28.7 °F 22.7 °F 30.28 in NNW 2 mph 2 mph 78% 0.00 in 0 W/m2
05:00 28.7 °F 22.7 °F 30.27 in NW 2 mph 2 mph 78% 0.00 in 0 W/m2
05:05 28.8 °F 22.8 °F 30.27 in West 2 mph 2 mph 78% 0.00 in 0 W/m2
05:10 28.9 °F 22.9 °F 30.27 in NNE 2 mph 3 mph 78% 0.00 in 0 W/m2
05:15 28.9 °F 22.9 °F 30.27 in NNW 2 mph 3 mph 78% 0.00 in 0 W/m2
05:20 28.8 °F 22.8 °F 30.27 in NNW 2 mph 3 mph 78% 0.00 in 0 W/m2
05:25 28.8 °F 23.1 °F 30.27 in NNW 2 mph 3 mph 79% 0.00 in 0 W/m2
05:30 28.8 °F 23.1 °F 30.27 in NE 2 mph 4 mph 79% 0.00 in 0 W/m2
05:35 28.6 °F 23.2 °F 30.27 in NNE 2 mph 4 mph 80% 0.00 in 0 W/m2
05:40 28.5 °F 23.1 °F 30.27 in North 2 mph 2 mph 80% 0.00 in 0 W/m2
05:45 28.5 °F 23.4 °F 30.27 in NNW 2 mph 2 mph 81% 0.00 in 0 W/m2
05:50 28.7 °F 23.6 °F 30.27 in NW 2 mph 2 mph 81% 0.00 in 0 W/m2
05:55 28.8 °F 23.7 °F 30.27 in NNW 2 mph 2 mph 81% 0.00 in 0 W/m2
06:00 29 °F 23.9 °F 30.26 in NNW 2 mph 3 mph 81% 0.00 in 0 W/m2
06:05 29.4 °F 24.3 °F 30.26 in NW 2 mph 3 mph 81% 0.00 in 0 W/m2
06:10 29.5 °F 24.4 °F 30.26 in North 2 mph 2 mph 81% 0.00 in 0 W/m2
06:15 29.6 °F 24.5 °F 30.26 in NW 2 mph 2 mph 81% 0.00 in 0 W/m2
06:20 30 °F 24.6 °F 30.26 in NNE 2 mph 3 mph 80% 0.00 in 0 W/m2
06:25 31 °F 24.6 °F 30.25 in North 3 mph 3 mph 77% 0.00 in 0 W/m2
06:30 31.4 °F 25 °F 30.25 in NNW 3 mph 3 mph 77% 0.00 in 0 W/m2
06:35 31.4 °F 25 °F 30.25 in NNW 3 mph 4 mph 77% 0.00 in 0 W/m2
06:40 31.5 °F 25.1 °F 30.25 in North 3 mph 3 mph 77% 0.00 in 0 W/m2
06:45 31.5 °F 25.1 °F 30.24 in NNW 3 mph 3 mph 77% 0.00 in 0 W/m2
06:50 31.8 °F 25.4 °F 30.24 in NNW 3 mph 3 mph 77% 0.00 in 0 W/m2
06:55 31.9 °F 25.5 °F 30.24 in North 3 mph 3 mph 77% 0.00 in 0 W/m2
07:00 32.2 °F 25.5 °F 30.24 in NNW 3 mph 4 mph 76% 0.00 in 5 W/m2
07:05 32.3 °F 25.6 °F 30.23 in NW 3 mph 4 mph 76% 0.00 in 9 W/m2
07:10 32.3 °F 25.6 °F 30.23 in NNE 3 mph 4 mph 76% 0.00 in 12 W/m2
07:15 32.5 °F 25.8 °F 30.23 in NNE 3 mph 4 mph 76% 0.00 in 18 W/m2
07:20 32.6 °F 25.9 °F 30.23 in NNE 3 mph 4 mph 76% 0.00 in 21 W/m2
07:25 32.8 °F 26.1 °F 30.22 in NNE 3 mph 4 mph 76% 0.00 in 28 W/m2
07:30 33.2 °F 26.5 °F 30.22 in North 3 mph 3 mph 76% 0.00 in 37 W/m2
07:35 33.3 °F 26.5 °F 30.22 in NE 3 mph 3 mph 76% 0.00 in 40 W/m2
07:40 33.5 °F 26.7 °F 30.22 in ENE 3 mph 4 mph 76% 0.00 in 35 W/m2
07:45 33.7 °F 26.9 °F 30.22 in NE 4 mph 4 mph 76% 0.00 in 32 W/m2
07:50 34.1 °F 27.3 °F 30.21 in NE 4 mph 5 mph 76% 0.00 in 46 W/m2
07:55 34.4 °F 27.6 °F 30.21 in WNW 4 mph 9 mph 76% 0.00 in 62 W/m2
08:00 34.7 °F 27.9 °F 30.21 in ENE 4 mph 7 mph 76% 0.00 in 49 W/m2
08:05 35.2 °F 28.4 °F 30.21 in West 5 mph 7 mph 76% 0.00 in 54 W/m2
08:10 35.7 °F 28.6 °F 30.20 in West 5 mph 5 mph 75% 0.00 in 54 W/m2
08:15 36.1 °F 28.6 °F 30.20 in NE 5 mph 6 mph 74% 0.00 in 60 W/m2
08:20 36.1 °F 28.9 °F 30.20 in NNE 5 mph 5 mph 75% 0.00 in 49 W/m2
08:25 36.5 °F 29 °F 30.20 in NNE 5 mph 5 mph 74% 0.00 in 70 W/m2
08:30 36.3 °F 29.1 °F 30.20 in NNE 4 mph 7 mph 75% 0.00 in 76 W/m2
08:35 36.5 °F 29.3 °F 30.19 in East 4 mph 7 mph 75% 0.00 in 83 W/m2
08:40 36.6 °F 29.4 °F 30.20 in SSE 4 mph 6 mph 75% 0.00 in 84 W/m2
08:45 36.7 °F 29.5 °F 30.20 in SSW 4 mph 6 mph 75% 0.00 in 86 W/m2
08:50 37 °F 29.1 °F 30.20 in ESE 5 mph 8 mph 73% 0.00 in 83 W/m2
08:55 36.8 °F 29.3 °F 30.20 in SSE 6 mph 8 mph 74% 0.00 in 81 W/m2
09:00 36.4 °F 29.2 °F 30.20 in East 5 mph 5 mph 75% 0.00 in 114 W/m2
09:05 36.9 °F 29.7 °F 30.20 in WSW 4 mph 5 mph 75% 0.00 in 227 W/m2
09:10 37.2 °F 29.7 °F 30.20 in SSE 4 mph 4 mph 74% 0.00 in 267 W/m2
09:15 37.3 °F 29.8 °F 30.20 in SW 4 mph 5 mph 74% 0.00 in 193 W/m2
09:20 37.5 °F 30.3 °F 30.20 in SSW 5 mph 9 mph 75% 0.00 in 253 W/m2
09:25 38.6 °F 30 °F 30.20 in South 6 mph 9 mph 71% 0.00 in 301 W/m2
09:30 39.7 °F 30.4 °F 30.20 in SSW 8 mph 11 mph 69% 0.00 in 258 W/m2
09:35 40.2 °F 30.1 °F 30.20 in SSW 10 mph 13 mph 67% 0.00 in 364 W/m2
09:40 40.2 °F 30.5 °F 30.20 in SSW 12 mph 12 mph 68% 0.00 in 311 W/m2
09:45 40.1 °F 30.4 °F 30.20 in SW 12 mph 12 mph 68% 0.00 in 348 W/m2
09:50 40.3 °F 30.6 °F 30.19 in SSW 11 mph 11 mph 68% 0.00 in 297 W/m2
09:55 40.3 °F 30.6 °F 30.19 in SSW 12 mph 12 mph 68% 0.00 in 287 W/m2
10:00 40.3 °F 30.6 °F 30.19 in SSW 12 mph 13 mph 68% 0.00 in 336 W/m2
10:05 40.3 °F 30.6 °F 30.19 in SW 12 mph 13 mph 68% 0.00 in 279 W/m2
10:10 40.6 °F 30.9 °F 30.19 in SSW 12 mph 12 mph 68% 0.00 in 318 W/m2
10:15 40.3 °F 30.6 °F 30.18 in SW 12 mph 14 mph 68% 0.00 in 438 W/m2
10:20 40.7 °F 31 °F 30.18 in SW 12 mph 14 mph 68% 0.00 in 461 W/m2
10:25 40.8 °F 31.1 °F 30.18 in SSW 13 mph 14 mph 68% 0.00 in 475 W/m2
10:30 40.5 °F 31.1 °F 30.18 in SSW 12 mph 15 mph 69% 0.00 in 432 W/m2
10:35 41 °F 31.2 °F 30.18 in SSW 13 mph 15 mph 68% 0.00 in 406 W/m2
10:40 41.2 °F 31.4 °F 30.17 in SW 14 mph 14 mph 68% 0.00 in 452 W/m2
10:45 41.3 °F 31.5 °F 30.18 in SSW 14 mph 14 mph 68% 0.00 in 524 W/m2
10:50 41.4 °F 31.6 °F 30.17 in SSW 14 mph 14 mph 68% 0.00 in 531 W/m2
10:55 41.5 °F 32.1 °F 30.17 in SSW 14 mph 14 mph 69% 0.00 in 424 W/m2
11:00 41.7 °F 31.9 °F 30.17 in SE 14 mph 14 mph 68% 0.00 in 385 W/m2
11:05 41.9 °F 32.5 °F 30.17 in SSW 13 mph 14 mph 69% 0.00 in 339 W/m2
11:10 42.2 °F 32.4 °F 30.17 in WSW 13 mph 14 mph 68% 0.00 in 531 W/m2
11:15 42.1 °F 32.3 °F 30.17 in SSW 13 mph 14 mph 68% 0.00 in 564 W/m2
11:20 42.3 °F 32.5 °F 30.16 in SSW 13 mph 13 mph 68% 0.00 in 571 W/m2
11:25 42.3 °F 32.5 °F 30.16 in SSW 12 mph 13 mph 68% 0.00 in 584 W/m2
11:30 42.3 °F 32.8 °F 30.16 in SSW 12 mph 12 mph 69% 0.00 in 587 W/m2
11:35 42.6 °F 33.1 °F 30.16 in SW 12 mph 12 mph 69% 0.00 in 596 W/m2
11:40 42.5 °F 33 °F 30.16 in SW 12 mph 12 mph 69% 0.00 in 598 W/m2
11:45 42.7 °F 33.2 °F 30.16 in SW 12 mph 12 mph 69% 0.00 in 596 W/m2
11:50 42.6 °F 33.5 °F 30.15 in WSW 11 mph 13 mph 70% 0.00 in 606 W/m2
11:55 42.4 °F 33.3 °F 30.15 in SW 11 mph 13 mph 70% 0.00 in 619 W/m2
12:00 42.5 °F 33.4 °F 30.15 in SSW 12 mph 14 mph 70% 0.00 in 629 W/m2
12:05 42.5 °F 33.4 °F 30.15 in SW 11 mph 14 mph 70% 0.00 in 381 W/m2
12:10 42 °F 33.3 °F 30.15 in SW 10 mph 10 mph 71% 0.00 in 422 W/m2
12:15 41.6 °F 33.2 °F 30.15 in SW 9 mph 12 mph 72% 0.00 in 462 W/m2
12:20 41.3 °F 33 °F 30.15 in WSW 9 mph 9 mph 72% 0.00 in 552 W/m2
12:25 41.7 °F 33.3 °F 30.15 in SW 10 mph 10 mph 72% 0.00 in 638 W/m2
12:30 42 °F 33.6 °F 30.15 in WSW 9 mph 10 mph 72% 0.00 in 650 W/m2
12:35 41.9 °F 33.5 °F 30.15 in SW 8 mph 10 mph 72% 0.00 in 649 W/m2
12:40 42 °F 33.6 °F 30.15 in SW 7 mph 7 mph 72% 0.00 in 622 W/m2
12:45 41.9 °F 33.5 °F 30.15 in West 5 mph 8 mph 72% 0.00 in 561 W/m2
12:50 41.3 °F 33.6 °F 30.15 in West 5 mph 5 mph 74% 0.00 in 529 W/m2
12:55 41.5 °F 33.8 °F 30.15 in SW 5 mph 6 mph 74% 0.00 in 638 W/m2
13:00 41.3 °F 33.6 °F 30.15 in West 6 mph 8 mph 74% 0.00 in 610 W/m2
13:05 41 °F 33.3 °F 30.15 in WSW 6 mph 8 mph 74% 0.00 in 380 W/m2
13:10 41 °F 33.3 °F 30.15 in SSW 5 mph 5 mph 74% 0.00 in 355 W/m2
13:15 41.3 °F 33.6 °F 30.15 in SSW 6 mph 9 mph 74% 0.00 in 628 W/m2
13:20 42 °F 34 °F 30.14 in SW 7 mph 7 mph 73% 0.00 in 622 W/m2
13:25 42.4 °F 34.4 °F 30.14 in SW 7 mph 7 mph 73% 0.00 in 622 W/m2
13:30 42.7 °F 34.3 °F 30.14 in SW 7 mph 7 mph 72% 0.00 in 636 W/m2
13:35 43 °F 34.6 °F 30.14 in SW 9 mph 9 mph 72% 0.00 in 628 W/m2
13:40 43.2 °F 34.4 °F 30.14 in WSW 9 mph 10 mph 71% 0.00 in 628 W/m2
13:45 43.2 °F 34.4 °F 30.14 in SW 9 mph 10 mph 71% 0.00 in 643 W/m2
13:50 43.4 °F 34.6 °F 30.14 in SW 8 mph 9 mph 71% 0.00 in 587 W/m2
13:55 43.5 °F 34.7 °F 30.13 in NNW 8 mph 9 mph 71% 0.00 in 621 W/m2
14:00 43.6 °F 34.8 °F 30.13 in West 8 mph 9 mph 71% 0.00 in 584 W/m2
14:05 43.2 °F 34.4 °F 30.13 in SSW 8 mph 10 mph 71% 0.00 in 582 W/m2
14:10 43.6 °F 34.8 °F 30.13 in SW 9 mph 10 mph 71% 0.00 in 570 W/m2
14:15 43.7 °F 34.9 °F 30.13 in WSW 10 mph 11 mph 71% 0.00 in 515 W/m2
14:20 43.4 °F 34.6 °F 30.12 in SW 11 mph 15 mph 71% 0.00 in 510 W/m2
14:25 43.8 °F 35 °F 30.12 in SSW 11 mph 15 mph 71% 0.00 in 591 W/m2
14:30 43.9 °F 34.7 °F 30.12 in SW 11 mph 11 mph 70% 0.00 in 584 W/m2
14:35 43.9 °F 35.1 °F 30.12 in SW 11 mph 11 mph 71% 0.00 in 570 W/m2
14:40 43.7 °F 34.9 °F 30.13 in West 9 mph 9 mph 71% 0.00 in 559 W/m2
14:45 43.1 °F 34.7 °F 30.13 in WSW 6 mph 9 mph 72% 0.00 in 545 W/m2
14:50 43.1 °F 35 °F 30.13 in SSW 6 mph 7 mph 73% 0.00 in 538 W/m2
14:55 42.9 °F 34.8 °F 30.12 in WSW 6 mph 9 mph 73% 0.00 in 533 W/m2
15:00 43 °F 34.9 °F 30.12 in WSW 6 mph 6 mph 73% 0.00 in 531 W/m2
15:05 42.9 °F 34.8 °F 30.12 in SW 6 mph 6 mph 73% 0.00 in 536 W/m2
15:10 43 °F 34.9 °F 30.12 in SW 6 mph 10 mph 73% 0.00 in 503 W/m2
15:15 43.1 °F 35 °F 30.12 in WSW 5 mph 10 mph 73% 0.00 in 478 W/m2
15:20 43.7 °F 35.3 °F 30.13 in South 5 mph 6 mph 72% 0.00 in 487 W/m2
15:25 44.6 °F 35.8 °F 30.13 in SW 6 mph 6 mph 71% 0.00 in 466 W/m2
15:30 44.7 °F 35.5 °F 30.13 in SW 7 mph 7 mph 70% 0.00 in 417 W/m2
15:35 44.2 °F 35.4 °F 30.13 in WSW 7 mph 9 mph 71% 0.00 in 418 W/m2
15:40 43.6 °F 35.2 °F 30.13 in SW 7 mph 7 mph 72% 0.00 in 410 W/m2
15:45 43.2 °F 34.8 °F 30.13 in WNW 6 mph 7 mph 72% 0.00 in 257 W/m2
15:50 43.1 °F 35 °F 30.13 in North 5 mph 5 mph 73% 0.00 in 397 W/m2
15:55 43.3 °F 34.9 °F 30.13 in WSW 4 mph 5 mph 72% 0.00 in 297 W/m2
16:00 43.6 °F 35.2 °F 30.13 in West 4 mph 7 mph 72% 0.00 in 329 W/m2
16:05 44.1 °F 35.6 °F 30.13 in WSW 5 mph 9 mph 72% 0.00 in 299 W/m2
16:10 44.9 °F 36.1 °F 30.13 in West 6 mph 10 mph 71% 0.00 in 315 W/m2
16:15 45.4 °F 35.8 °F 30.13 in West 6 mph 10 mph 69% 0.00 in 318 W/m2
16:20 44.8 °F 35.6 °F 30.13 in West 5 mph 5 mph 70% 0.00 in 306 W/m2
16:25 44.7 °F 35.5 °F 30.13 in West 5 mph 6 mph 70% 0.00 in 288 W/m2
16:30 44 °F 35.6 °F 30.14 in WNW 5 mph 8 mph 72% 0.00 in 285 W/m2
16:35 45.1 °F 35.5 °F 30.14 in SSW 6 mph 8 mph 69% 0.00 in 265 W/m2
16:40 41.1 °F 33.4 °F 30.14 in West 6 mph 7 mph 74% 0.00 in 269 W/m2
16:45 41.2 °F 33.9 °F 30.14 in West 5 mph 7 mph 75% 0.00 in 264 W/m2
16:50 42.8 °F 35.1 °F 30.14 in SW 5 mph 5 mph 74% 0.00 in 264 W/m2
16:55 45.4 °F 35.8 °F 30.14 in West 5 mph 7 mph 69% 0.00 in 190 W/m2
17:00 46.3 °F 36.7 °F 30.14 in WNW 6 mph 9 mph 69% 0.00 in 220 W/m2
17:05 46.2 °F 36.2 °F 30.14 in WNW 6 mph 9 mph 68% 0.00 in 230 W/m2
17:10 46.2 °F 36.6 °F 30.14 in West 5 mph 7 mph 69% 0.00 in 209 W/m2
17:15 47.6 °F 37.2 °F 30.14 in West 6 mph 7 mph 67% 0.00 in 185 W/m2
17:20 48.2 °F 37.4 °F 30.14 in West 8 mph 8 mph 66% 0.00 in 200 W/m2
17:25 48.3 °F 37.1 °F 30.15 in West 8 mph 8 mph 65% 0.00 in 172 W/m2
17:30 46.9 °F 36.5 °F 30.15 in SW 6 mph 6 mph 67% 0.00 in 156 W/m2
17:35 45.9 °F 35.9 °F 30.15 in WNW 6 mph 12 mph 68% 0.00 in 149 W/m2
17:40 46.5 °F 36.5 °F 30.15 in WNW 7 mph 7 mph 68% 0.00 in 120 W/m2
17:45 45.8 °F 35.8 °F 30.15 in West 7 mph 7 mph 68% 0.00 in 120 W/m2
17:50 45.9 °F 35.9 °F 30.16 in WSW 7 mph 7 mph 68% 0.00 in 93 W/m2
17:55 44.3 °F 35.5 °F 30.16 in West 6 mph 8 mph 71% 0.00 in 67 W/m2
18:00 43.7 °F 34.9 °F 30.16 in SSW 6 mph 6 mph 71% 0.00 in 51 W/m2
18:05 44.1 °F 35.6 °F 30.16 in West 6 mph 6 mph 72% 0.00 in 40 W/m2
18:10 45.3 °F 36.1 °F 30.16 in WSW 6 mph 6 mph 70% 0.00 in 28 W/m2
18:15 46 °F 36.8 °F 30.16 in West 6 mph 10 mph 70% 0.00 in 18 W/m2
18:20 46.5 °F 36.5 °F 30.16 in WSW 7 mph 7 mph 68% 0.00 in 11 W/m2
18:25 46.9 °F 36.9 °F 30.17 in West 7 mph 14 mph 68% 0.00 in 9 W/m2
18:30 47.2 °F 36.8 °F 30.17 in WSW 8 mph 8 mph 67% 0.00 in 5 W/m2
18:35 47.2 °F 36.8 °F 30.17 in SW 8 mph 8 mph 67% 0.00 in 0 W/m2
18:40 47.2 °F 37.2 °F 30.18 in WSW 8 mph 13 mph 68% 0.00 in 0 W/m2
18:45 47.4 °F 37 °F 30.18 in WNW 7 mph 13 mph 67% 0.00 in 0 W/m2
18:50 47.4 °F 37 °F 30.18 in West 7 mph 7 mph 67% 0.00 in 0 W/m2
18:55 46.9 °F 36.9 °F 30.18 in West 7 mph 7 mph 68% 0.00 in 0 W/m2
19:00 46.4 °F 36.4 °F 30.18 in WNW 7 mph 7 mph 68% 0.00 in 0 W/m2
19:05 46.1 °F 36.5 °F 30.19 in West 7 mph 7 mph 69% 0.00 in 0 W/m2
19:10 45.7 °F 36.1 °F 30.19 in WNW 7 mph 7 mph 69% 0.00 in 0 W/m2
19:15 45.1 °F 35.9 °F 30.19 in West 7 mph 7 mph 70% 0.00 in 0 W/m2
19:20 45.3 °F 36.1 °F 30.19 in West 7 mph 7 mph 70% 0.00 in 0 W/m2
19:25 45.1 °F 36.3 °F 30.19 in WNW 6 mph 7 mph 71% 0.00 in 0 W/m2
19:30 45.2 °F 36 °F 30.19 in West 6 mph 6 mph 70% 0.00 in 0 W/m2
19:35 44.9 °F 36.1 °F 30.20 in WSW 6 mph 7 mph 71% 0.00 in 0 W/m2
19:40 44.4 °F 35.9 °F 30.20 in WSW 6 mph 6 mph 72% 0.00 in 0 W/m2
19:45 44.7 °F 35.9 °F 30.20 in West 6 mph 6 mph 71% 0.00 in 0 W/m2
19:50 45.3 °F 36.4 °F 30.20 in NW 7 mph 7 mph 71% 0.00 in 0 W/m2
19:55 42.9 °F 34.5 °F 30.21 in NW 5 mph 7 mph 72% 0.00 in 0 W/m2
20:00 41.3 °F 34 °F 30.22 in NNW 4 mph 4 mph 75% 0.00 in 0 W/m2
20:05 40 °F 33.4 °F 30.22 in NNW 3 mph 4 mph 77% 0.00 in 0 W/m2
20:10 38.6 °F 32.6 °F 30.22 in NNW 2 mph 2 mph 79% 0.00 in 0 W/m2
20:15 37.7 °F 32.1 °F 30.22 in NNW 2 mph 3 mph 80% 0.00 in 0 W/m2
20:20 37.3 °F 32.3 °F 30.22 in NNE 2 mph 2 mph 82% 0.00 in 0 W/m2
20:25 36.9 °F 31.9 °F 30.22 in NNE 2 mph 2 mph 82% 0.00 in 0 W/m2
20:30 36.7 °F 32 °F 30.22 in NNE 2 mph 3 mph 83% 0.00 in 0 W/m2
20:35 36.4 °F 31.7 °F 30.22 in North 2 mph 3 mph 83% 0.00 in 0 W/m2
20:40 36 °F 31.3 °F 30.22 in NNE 2 mph 3 mph 83% 0.00 in 0 W/m2
20:45 35.9 °F 31.5 °F 30.22 in NNE 2 mph 3 mph 84% 0.00 in 0 W/m2
20:50 35.9 °F 31.8 °F 30.22 in NNE 2 mph 2 mph 85% 0.00 in 0 W/m2
20:55 35.9 °F 31.8 °F 30.23 in NNE 2 mph 2 mph 85% 0.00 in 0 W/m2
21:00 35.6 °F 31.5 °F 30.23 in NE 1 mph 1 mph 85% 0.00 in 0 W/m2
21:05 35.6 °F 31.5 °F 30.23 in NE 1 mph 1 mph 85% 0.00 in 0 W/m2
21:10 36 °F 31.9 °F 30.23 in NE 1 mph 1 mph 85% 0.00 in 0 W/m2
21:15 35.8 °F 31.7 °F 30.23 in NE 1 mph 1 mph 85% 0.00 in 0 W/m2
21:20 35.6 °F 31.5 °F 30.24 in NE 1 mph 1 mph 85% 0.00 in 0 W/m2
21:25 35.3 °F 31.5 °F 30.24 in NE 1 mph 2 mph 86% 0.00 in 0 W/m2
21:30 35.2 °F 31.4 °F 30.24 in NE 1 mph 1 mph 86% 0.00 in 0 W/m2
21:35 35.2 °F 31.4 °F 30.24 in NE 1 mph 1 mph 86% 0.00 in 0 W/m2
21:40 35.1 °F 31.3 °F 30.24 in Calm     86% 0.00 in 0 W/m2
21:45 34.8 °F 31 °F 30.25 in Calm     86% 0.00 in 0 W/m2
21:50 35.2 °F 32 °F 30.25 in Calm     88% 0.00 in 0 W/m2
21:55 34.8 °F 31 °F 30.25 in Calm     86% 0.00 in 0 W/m2
22:00 35.2 °F 31.7 °F 30.25 in Calm     87% 0.00 in 0 W/m2
22:05 35.4 °F 31.6 °F 30.26 in Calm     86% 0.00 in 0 W/m2
22:10 35.6 °F 31.8 °F 30.25 in Calm     86% 0.00 in 0 W/m2
22:15 36.2 °F 32.4 °F 30.25 in Calm     86% 0.00 in 0 W/m2
22:20 36.9 °F 33.1 °F 30.25 in Calm     86% 0.00 in 0 W/m2
22:25 37.1 °F 33 °F 30.25 in Calm     85% 0.00 in 0 W/m2
22:30 37.4 °F 33 °F 30.25 in Calm     84% 0.00 in 0 W/m2
22:35 37.4 °F 32.7 °F 30.25 in Calm     83% 0.00 in 0 W/m2
22:40 37.5 °F 32.8 °F 30.26 in Calm     83% 0.00 in 0 W/m2
22:45 37.7 °F 33 °F 30.26 in Calm     83% 0.00 in 0 W/m2
22:50 37.7 °F 33 °F 30.26 in Calm     83% 0.00 in 0 W/m2
22:55 37.5 °F 32.8 °F 30.26 in Calm     83% 0.00 in 0 W/m2
23:00 37.2 °F 32.5 °F 30.26 in Calm     83% 0.00 in 0 W/m2
23:05 37.1 °F 32.4 °F 30.26 in Calm     83% 0.00 in 0 W/m2
23:10 36.2 °F 31.8 °F 30.27 in Calm     84% 0.00 in 0 W/m2
23:15 35.3 °F 30.9 °F 30.26 in Calm     84% 0.00 in 0 W/m2
23:20 35.1 °F 31.3 °F 30.26 in Calm     86% 0.00 in 0 W/m2
23:25 35.2 °F 31.1 °F 30.26 in Calm     85% 0.00 in 0 W/m2
23:30 35.1 °F 31.3 °F 30.27 in Calm     86% 0.00 in 0 W/m2
23:35 34.9 °F 31.4 °F 30.26 in Calm     87% 0.00 in 0 W/m2
23:40 35.2 °F 31.7 °F 30.27 in Calm     87% 0.00 in 0 W/m2
23:45 35.4 °F 31.9 °F 30.27 in Calm     87% 0.00 in 0 W/m2
23:50 35 °F 31.2 °F 30.27 in Calm     86% 0.00 in 0 W/m2
23:55 34.3 °F 30.5 °F 30.27 in Calm     86% 0.00 in 0 W/m2
Sand Point, Michigan, USA
Compliments of Weather Underground - 2 mb